Location: Amsterdam
(30.7274°N, 84.4357°W)
Time: 20:19:26
(UTC+00:00)

Explorer 11/Cluster Stage 4 - Pass Details

Date: 18 February 2026
Orbit: 463 x 1176 km, 28.8° (Epoch: 5 March)

Event Time Altitude Azimuth Distance (km) Brightness Sun altitude
Rises 21:40:10 0° 271° (W) 2,511 10.2 20.9°
Reaches altitude 10° 21:42:24 10° 265° (W) 1,606 9.6 20.5°
Maximum altitude 21:45:52 46° 191° (S) 626 6.8 19.8°
Drops below altitude 10° 21:49:24 10° 117° (ESE) 1,642 8.0 19.1°
Sets 21:51:43 0° 111° (ESE) 2,575 8.9 18.7°
